Regional Weather Roundup
Issued by NWS

Home | Current Version | Previous Version | Text Only | Print | Product List | Glossary On
Versions: 1 2 3 4 5 6 7 8 9 10 11 12 13 14 15 16 17 18 19 20 21 22 23 24 25 26 27 28 29 30 31 32 33 34 35 36 37 38 39 40 41 42 43 44 45 46 47 48 49 50
000
ASUS43 KTOP 230359
RWRKS

WEATHER ROUNDUP FOR KANSAS
NATIONAL WEATHER SERVICE GOODLAND KS
1100 PM CDT THU JUN 22 2017

NOTE:  "FAIR" INDICATES FEW OR NO CLOUDS BELOW 12,000 FEET WITH NO
SIGNIFICANT WEATHER AND/OR OBSTRUCTIONS TO VISIBILITY.

KSZ001>006-013>018-027>032-041>047-230500-
NORTHWEST KANSAS

CITY           SKY/WX    TMP DP  RH WIND       PRES   REMARKS
GOODLAND       PTCLDY    72  58  61 NE17      29.91R
HAYS           TSTM      80  63  55 S21G31    29.87R
HILL CITY      CLOUDY    78  62  57 NE17G25   29.83R
RUSSELL        CLOUDY    81  65  58 NW15G26   29.77R
$$

KSZ061>065-074>080-084>089-230500-
SOUTHWEST KANSAS

CITY           SKY/WX    TMP DP  RH WIND       PRES   REMARKS
DODGE CITY     CLOUDY    71  64  78 NE6       29.79F
ELKHART          N/A     70  54  57 NE7         N/A
GARDEN CITY    MOCLDY    69  63  81 NE8       29.82R
GREAT BEND     LGT RAIN  71  63  75 W33G48    29.80R
LIBERAL        CLOUDY    77  59  53 N13       29.85R
$$

KSZ066>073-081>083-090>101-230500-
SOUTHEAST KANSAS

CITY           SKY/WX    TMP DP  RH WIND       PRES   REMARKS
CHANUTE        CLEAR     74  71  91 CALM      29.71R
COFFEYVILLE    CLEAR     76  73  91 CALM      29.70R
HUTCHINSON     CLOUDY    80  65  59 S6        29.70R
MEDICINE LODGE   N/A     82  64  54 SE3       29.73R
NEWTON         CLEAR     78  69  73 S12       29.72R
PARSONS        CLEAR     73  71  93 CALM      29.72R
WICHITA INTL   PTCLDY    79  71  76 S9        29.71R
WICHITA JABRA  CLEAR     77  71  82 S9        29.71R
WINFIELD       CLEAR     77  71  82 SE5       29.72R
$$

KSZ007>012-019>026-033>040-048>060-102>105-230500-
NORTHEAST KANSAS

CITY           SKY/WX    TMP DP  RH WIND       PRES   REMARKS
CONCORDIA      CLOUDY    81  68  64 N14G20    29.71R
EMPORIA        CLEAR     76  72  87 S9        29.69S
LAWRENCE       CLEAR     77  74  90 SE6       29.68F
MANHATTAN      PTCLDY    81  71  71 S7        29.66R
OLATHE IND     CLOUDY    78  73  84 SE6       29.71S
OLATHE EXE     CLEAR     76  74  93 SE3       29.71S
SALINA         PTCLDY    83  67  58 S10       29.66R
TOPEKA BILLARD CLEAR     81  73  76 S5        29.66F
TOPEKA FORBES  CLEAR     80  72  76 SE8       29.67F
$$



USA.gov is the U.S. government's official web portal to all federal, state and local government web resources and services.